Previsão horária em Abramowice

Hoje, 18 Maio, Terça-feira

Tempo Temperatura Precipitação Vento Pressão Humidade
00:00 +9°C° 1.7 mm 3 m/s 719 mmHg 97%
01:00 +8°C° 1.7 mm 4 m/s 719 mmHg 96%
02:00 +9°C° 1.9 mm 3 m/s 719 mmHg 97%
03:00 +8°C° 1.9 mm 3 m/s 719 mmHg 97%
04:00 +8°C° 1.9 mm 3 m/s 720 mmHg 97%
05:00 +8°C° 1.9 mm 3 m/s 720 mmHg 97%
06:00 +7°C° 1.9 mm 4 m/s 720 mmHg 97%
07:00 +7°C° 1.9 mm 4 m/s 721 mmHg 97%
08:00 +8°C° 0.8 mm 4 m/s 721 mmHg 95%
09:00 +8°C° 0.8 mm 4 m/s 721 mmHg 94%
10:00 +8°C° 0.8 mm 5 m/s 722 mmHg 93%
11:00 +9°C° 0.3 mm 5 m/s 722 mmHg 90%
12:00 +10°C° 0.3 mm 5 m/s 722 mmHg 87%
13:00 +12°C° 0.3 mm 5 m/s 722 mmHg 84%
14:00 +12°C° 0.4 mm 5 m/s 722 mmHg 83%
15:00 +12°C° 0.4 mm 5 m/s 722 mmHg 83%
16:00 +12°C° 0.4 mm 5 m/s 722 mmHg 83%
17:00 +12°C° 0.2 mm 4 m/s 722 mmHg 85%
18:00 +11°C° 0.2 mm 3 m/s 723 mmHg 87%
19:00 +10°C° 0.2 mm 3 m/s 723 mmHg 90%
20:00 +9°C° 0 mm 3 m/s 723 mmHg 91%
21:00 +8°C° 0 mm 2 m/s 723 mmHg 92%
22:00 +8°C° 0 mm 2 m/s 723 mmHg 94%
23:00 +7°C° 0 mm 2 m/s 723 mmHg 94%

Amanhã, 19 Maio, Quarta-feira

Tempo Temperatura Precipitação Vento Pressão Humidade
00:00 +7°C° 0 mm 2 m/s 724 mmHg 94%
01:00 +7°C° 0 mm 2 m/s 724 mmHg 94%
02:00 +6°C° 0 mm 2 m/s 724 mmHg 94%
03:00 +6°C° 0 mm 2 m/s 724 mmHg 95%
04:00 +6°C° 0 mm 2 m/s 724 mmHg 95%
05:00 +7°C° 0 mm 2 m/s 724 mmHg 92%
06:00 +9°C° 0 mm 2 m/s 725 mmHg 89%
07:00 +10°C° 0 mm 3 m/s 725 mmHg 85%
08:00 +11°C° 0.1 mm 3 m/s 725 mmHg 81%
09:00 +12°C° 0.1 mm 3 m/s 725 mmHg 76%
10:00 +12°C° 0.1 mm 4 m/s 725 mmHg 71%
11:00 +13°C° 0.2 mm 4 m/s 725 mmHg 71%
12:00 +13°C° 0.2 mm 3 m/s 725 mmHg 70%
13:00 +13°C° 0.2 mm 3 m/s 725 mmHg 70%
14:00 +12°C° 0.7 mm 3 m/s 725 mmHg 76%
15:00 +12°C° 0.7 mm 3 m/s 725 mmHg 82%
16:00 +12°C° 0.7 mm 2 m/s 725 mmHg 87%
17:00 +10°C° 0.5 mm 2 m/s 725 mmHg 89%
18:00 +10°C° 0.5 mm 2 m/s 725 mmHg 90%
19:00 +9°C° 0.5 mm 2 m/s 725 mmHg 92%
20:00 +9°C° 0.8 mm 2 m/s 725 mmHg 94%
21:00 +9°C° 0.8 mm 2 m/s 725 mmHg 95%
22:00 +8°C° 0.8 mm 2 m/s 725 mmHg 97%
23:00 +8°C° 1.1 mm 2 m/s 725 mmHg 97%

Depois de amanhã, 20 Maio, Quinta-feira

Tempo Temperatura Precipitação Vento Pressão Humidade
00:00 +8°C° 1.1 mm 2 m/s 725 mmHg 98%
01:00 +8°C° 1.1 mm 3 m/s 725 mmHg 98%
02:00 +8°C° 1 mm 3 m/s 725 mmHg 98%
03:00 +8°C° 1 mm 3 m/s 725 mmHg 98%
04:00 +8°C° 1 mm 3 m/s 725 mmHg 98%
05:00 +8°C° 1.1 mm 3 m/s 725 mmHg 98%
06:00 +8°C° 1.1 mm 3 m/s 726 mmHg 98%
07:00 +8°C° 1.1 mm 3 m/s 726 mmHg 98%
08:00 +8°C° 1 mm 3 m/s 726 mmHg 97%
09:00 +8°C° 1 mm 3 m/s 727 mmHg 95%
10:00 +8°C° 1 mm 3 m/s 727 mmHg 94%
11:00 +8°C° 0.4 mm 3 m/s 727 mmHg 91%
12:00 +9°C° 0.4 mm 3 m/s 727 mmHg 87%
13:00 +10°C° 0.4 mm 3 m/s 727 mmHg 84%
14:00 +10°C° 0.1 mm 3 m/s 727 mmHg 81%
15:00 +11°C° 0.1 mm 3 m/s 727 mmHg 77%
16:00 +12°C° 0.1 mm 3 m/s 727 mmHg 73%
17:00 +11°C° 0.2 mm 3 m/s 728 mmHg 78%
18:00 +10°C° 0.2 mm 3 m/s 728 mmHg 83%
19:00 +9°C° 0.2 mm 3 m/s 728 mmHg 88%
20:00 +9°C° 0.3 mm 3 m/s 728 mmHg 90%
21:00 +8°C° 0.3 mm 3 m/s 729 mmHg 92%
22:00 +8°C° 0.3 mm 3 m/s 729 mmHg 94%
23:00 +8°C° 0.1 mm 3 m/s 729 mmHg 95%

21 Maio, Sexta-feira

Tempo Temperatura Precipitação Vento Pressão Humidade
00:00 +7°C° 0.1 mm 3 m/s 729 mmHg 96%
01:00 +7°C° 0.1 mm 3 m/s 730 mmHg 96%
02:00 +7°C° 0 mm 3 m/s 730 mmHg 96%
03:00 +6°C° 0 mm 2 m/s 730 mmHg 96%
04:00 +6°C° 0 mm 2 m/s 730 mmHg 96%
05:00 +7°C° 0 mm 2 m/s 730 mmHg 92%
06:00 +8°C° 0 mm 2 m/s 731 mmHg 88%
07:00 +9°C° 0 mm 2 m/s 731 mmHg 85%
08:00 +10°C° 0 mm 3 m/s 731 mmHg 76%
09:00 +11°C° 0 mm 3 m/s 731 mmHg 68%
10:00 +12°C° 0 mm 3 m/s 730 mmHg 59%
11:00 +13°C° 0.1 mm 3 m/s 730 mmHg 59%
12:00 +13°C° 0.1 mm 3 m/s 730 mmHg 58%
13:00 +14°C° 0.1 mm 3 m/s 729 mmHg 57%
14:00 +15°C° 0.1 mm 2 m/s 729 mmHg 57%
15:00 +15°C° 0.1 mm 2 m/s 729 mmHg 57%
16:00 +15°C° 0.1 mm 2 m/s 728 mmHg 57%
17:00 +14°C° 0 mm 2 m/s 728 mmHg 64%
18:00 +12°C° 0 mm 1 m/s 728 mmHg 71%
19:00 +11°C° 0 mm 1 m/s 728 mmHg 78%
20:00 +9°C° 0 mm 2 m/s 728 mmHg 81%
21:00 +8°C° 0 mm 2 m/s 727 mmHg 83%
22:00 +7°C° 0 mm 2 m/s 727 mmHg 86%
23:00 +7°C° 0 mm 2 m/s 727 mmHg 85%

22 Maio, Sábado

Tempo Temperatura Precipitação Vento Pressão Humidade
00:00 +7°C° 0 mm 2 m/s 727 mmHg 84%
01:00 +7°C° 0 mm 2 m/s 726 mmHg 84%
02:00 +7°C° 0 mm 2 m/s 726 mmHg 85%
03:00 +6°C° 0 mm 2 m/s 726 mmHg 86%
04:00 +6°C° 0 mm 2 m/s 725 mmHg 87%
05:00 +8°C° 0 mm 2 m/s 725 mmHg 80%
06:00 +10°C° 0 mm 2 m/s 725 mmHg 73%
07:00 +13°C° 0 mm 2 m/s 725 mmHg 66%
08:00 +15°C° 0 mm 2 m/s 725 mmHg 60%
09:00 +17°C° 0 mm 2 m/s 725 mmHg 54%
10:00 +19°C° 0 mm 2 m/s 725 mmHg 47%
11:00 +19°C° 0 mm 2 m/s 725 mmHg 47%
12:00 +20°C° 0 mm 2 m/s 724 mmHg 46%
13:00 +20°C° 0 mm 2 m/s 724 mmHg 45%
14:00 +19°C° 0 mm 2 m/s 724 mmHg 51%
15:00 +18°C° 0 mm 2 m/s 723 mmHg 57%
16:00 +17°C° 0 mm 2 m/s 723 mmHg 63%
17:00 +16°C° 0.2 mm 2 m/s 723 mmHg 72%
18:00 +14°C° 0.2 mm 2 m/s 723 mmHg 81%
19:00 +12°C° 0.2 mm 1 m/s 724 mmHg 89%
20:00 +12°C° 1 mm 2 m/s 724 mmHg 92%
21:00 +10°C° 1 mm 2 m/s 724 mmHg 94%
22:00 +9°C° 1 mm 2 m/s 725 mmHg 97%
23:00 +9°C° 1.5 mm 2 m/s 725 mmHg 96%

23 Maio, Domingo

Tempo Temperatura Precipitação Vento Pressão Humidade
00:00 +8°C° 1.5 mm 2 m/s 725 mmHg 96%
01:00 +9°C° 1.5 mm 1 m/s 725 mmHg 96%
02:00 +9°C° 0.2 mm 1 m/s 725 mmHg 95%
03:00 +9°C° 0.2 mm 1 m/s 725 mmHg 95%
04:00 +8°C° 0.2 mm 1 m/s 725 mmHg 94%
05:00 +9°C° 0 mm 1 m/s 725 mmHg 89%
06:00 +10°C° 0 mm 1 m/s 725 mmHg 84%
07:00 +11°C° 0 mm 1 m/s 726 mmHg 79%
08:00 +13°C° 0 mm 1 m/s 726 mmHg 71%
09:00 +14°C° 0 mm 1 m/s 726 mmHg 63%
10:00 +16°C° 0 mm 1 m/s 726 mmHg 54%
11:00 +16°C° 0 mm 1 m/s 726 mmHg 53%
12:00 +18°C° 0 mm 1 m/s 725 mmHg 52%
13:00 +17°C° 0 mm 2 m/s 725 mmHg 51%
14:00 +16°C° 0.3 mm 2 m/s 725 mmHg 60%
15:00 +15°C° 0.3 mm 1 m/s 726 mmHg 70%
16:00 +14°C° 0.3 mm 1 m/s 726 mmHg 79%
17:00 +13°C° 0.5 mm 1 m/s 726 mmHg 83%
18:00 +12°C° 0.5 mm 1 m/s 726 mmHg 87%
19:00 +10°C° 0.5 mm 2 m/s 726 mmHg 91%
20:00 +11°C° 0.1 mm 1 m/s 727 mmHg 90%
21:00 +10°C° 0.1 mm 1 m/s 727 mmHg 90%
22:00 +10°C° 0.1 mm 1 m/s 727 mmHg 89%
23:00 +10°C° 0 mm 1 m/s 727 mmHg 89%
Mostrar mais

Necessitamos do seu Consentimento

A Meteoprog e os seus Fornecedores de Serviços podem armazenar e aceder a dados pessoais como cookies, identificadores do dispositivo ou outras tecnologias semelhantes existentes no seu dispositivo e processar estes dados para personalizar conteúdos e anúncios, assim como funcionalidades nas redes sociais e análise de tráfego.

  • Armazenar e/ou aceder a informações no seu dispositivo

    Os cookies, identificadores do dispositivo ou outras informações podem ser armazenados ou acedidos no seu dispositivo, para os fins acima indicados.

  • Anúncios e conteúdos personalizados, medição de anúncios e conteúdos, dados sobre o público-alvo e desenvolvimento de produtos

    Os anúncios e os conteúdos podem ser personalizados com base num perfil. Podem ser adicionados dados adicionais para uma maior personalização dos anúncios e dos conteúdos. A eficácia dos anúncios e dos conteúdos pode ser medida. Podem ser obtidas informações sobre o público que visualizou os anúncios e os conteúdos. Estes dados podem ser usados para desenvolver ou melhorar sistemas, softwares ou a experiência do utilizador.

Ao clicar em "Eu concordo”, permitirá o uso de cookies, identificadores do dispositivo e web beacons mencionados ou outras tecnologias semelhantes. As configurações do navegador do seu dispositivo podem ser alteradas.

Para certos fins, podem ser invocados interesses legítimos ao invés de consentimento. Pode ler mais informação sobre este assunto na nossa Política de Privacidade e Cookies.